SCP
0 0 0 0 0 0 0 0 0 0 0 0 0 0 0 0 0 0 0 0 0 0 0 0 0 0 0 0 0 0 0 0 0 0 0 0 0 0 0 0 0 0 1 1
0 0 0 0 0 0 0 0 0 0 0 0 0 0 0 0 0 0 0 0 0 0 0 0 0 0 0 0 0 0 0 0 0 0 0 0 0 0 0 0 0 0 1 1
0 0 0 0 0 0 0 0 0 0 0 0 0 0 0 0 0 0 0 0 0 0 0 0 0 0 0 0 0 0 0 0 0 0 0 0 0 0 0 0 0 0 1 1
0 0 0 0 0 0 0 0 0 0 0 0 0 0 0 0 0 0 0 0 0 0 0 0 0 0 0 0 0 0 0 0 0 0 0 0 0 0 0 0 0 0 0 0
0 0 0 0 0 0 0 0 0 0 0 0 0 0 0 0 0 0 0 0 0 0 0 0 0 0 0 0 0 0 0 0 0 0 0 0 0 0 0 0 0 0 0 0
0 0 0 0 0 0 0 0 0 0 0 0 0 0 0 0 0 0 0 0 0 0 0 0 0 0 0 0 0 0 0 0 0 0 0 0 0 0 0 0 0 0 0 0
0 0 0 0 0 0 0 0 0 0 0 0 0 0 0 0 0 0 0 0 0 0 0 0 0 0 0 0 0 0 0 0 0 0 0 0 0 0 0 0 0 0 0 0
0 0 0 0 0 0 0 0 0 0 0 0 0 0 0 0 0 0 0 0 0 0 0 0 0 0 0 0 0 0 0 0 0 0 0 0 0 0 0 0 0 0 0 0
0 0 0 0 0 0 0 0 0 0 0 0 0 0 0 0 0 0 0 0 0 0 0 0 0 0 0 0 0 0 0 0 0 0 0 0 0 0 0 0 0 0 0 0
0 0 0 0 0 0 0 0 0 0 0 0 0 0 0 0 0 0 0 0 0 0 0 0 0 0 0 0 0 0 0 0 0 0 0 0 0 0 0 0 0 0 0 0
0 0 0 0 0 0 0 0 0 0 0 0 0 0 0 0 0 0 0 0 0 0 0 0 0 0 0 0 0 0 0 0 0 0 0 0 0 0 0 0 0 0 0 0
0 0 0 0 0 0 0 0 0 0 0 0 0 0 0 0 0 0 0 0 0 0 0 0 0 0 0 0 0 0 0 0 0 0 0 0 0 0 0 0 0 0 0 0
0 0 0 0 0 0 0 0 0 0 0 0 0 0 0 0 0 0 0 0 0 0 0 0 0 0 0 0 0 0 0 0 0 0 0 0 0 0 0 0 0 0 0 0
0 0 0 0 0 0 0 0 0 0 0 0 0 0 0 0 0 0 0 0 0 0 0 0 0 0 0 0 0 0 0 0 0 0 0 0 0 0 0 0 0 0 0 0
0 0 0 0 0 0 0 0 0 0 0 0 0 0 0 0 0 0 0 0 0 0 0 0 0 0 0 0 0 0 0 0 0 0 0 0 0 0 0 0 0 0 0 0
0 0 0 0 0 0 0 0 0 0 0 0 0 0 0 0 0 0 0 0 0 0 0 0 0 0 0 0 0 0 0 0 0 0 0 0 0 0 0 0 0 0 0 0
0 0 0 0 0 0 0 0 0 0 0 0 0 0 0 0 0 0 0 0 0 0 0 0 0 0 0 0 0 0 0 0 0 0 0 0 0 0 0 0 0 0 0 0
0 0 0 0 0 0 0 0 0 0 0 0 0 0 0 0 0 0 0 0 0 0 0 0 0 0 0 0 0 0 0 0 0 0 0 0 0 0 0 0 0 0 0 0
0 0 0 0 0 0 0 0 0 0 0 0 0 0 0 0 0 0 0 0 0 0 0 0 0 0 0 0 0 0 0 0 0 0 0 0 0 0 0 0 0 0 0 0
0 0 0 0 0 0 0 0 0 0 0 0 0 0 0 0 0 0 0 0 0 0 0 0 0 0 0 0 0 0 0 0 0 0 0 0 0 0 0 0 0 0 0 0
0 0 0 0 0 0 0 0 0 0 0 0 0 0 0 0 0 0 0 0 0 0 0 0 0 0 0 0 0 0 0 0 0 0 0 0 0 0 0 0 0 0 0 0
0 0 0 0 0 0 0 0 0 0 0 0 0 0 0 0 0 0 0 0 0 0 0 0 0 0 0 0 0 0 0 0 0 0 0 0 0 0 0 0 0 0 0 0
0 0 0 0 0 0 0 0 0 0 0 0 0 0 0 0 0 0 0 0 0 0 0 0 0 0 0 0 0 0 0 0 0 0 0 0 0 0 0 0 0 0 0 0
0 0 0 0 0 0 0 0 0 0 0 0 0 0 0 0 0 0 0 0 0 0 0 0 0 0 0 0 0 0 0 0 0 0 0 0 0 0 0 0 0 0 0 0
0 0 0 0 0 0 0 0 0 0 0 0 0 0 0 0 0 0 0 0 0 0 0 0 0 0 0 0 0 0 0 0 0 0 0 0 0 0 0 0 0 0 0 0
0 0 0 0 0 0 0 0 0 0 0 0 0 0 0 0 0 0 0 0 0 0 0 0 0 0 0 0 0 0 0 0 0 0 0 0 0 0 0 0 0 0 0 0
0 0 0 0 0 0 0 0 1 1 1 1 1 0 0 0 0 0 0 0 0 0 0 0 0 0 0 0 0 0 0 0 0 0 0 0 0 0 0 0 0 0 0 0
Wind_Speed
2 2 3 3 2 2 3 5 8 10 12 12 10 9 10 12 14 14 13 14 15 15 15 15 16 16 16 16 16 16 16 16 16 16 16 16 16 16 16 16 16 16 16 16
3 2 4 6 5 5 4 5 8 10 11 7 6 8 11 13 14 14 14 15 16 17 17 17 16 16 16 16 15 15 16 17 17 17 17 16 16 16 16 16 16 15 15 16
5 2 8 8 8 7 5 5 8 11 12 11 11 12 13 14 13 13 15 16 17 17 16 16 16 16 16 15 15 16 16 16 16 16 17 17 17 17 17 16 15 15 15 15
6 4 8 4 4 2 5 8 7 9 11 11 11 12 12 10 10 13 15 16 16 16 16 16 16 16 15 16 16 16 16 16 16 16 17 17 17 17 16 15 14 13 14 14
7 9 9 5 6 4 5 9 4 7 10 10 10 13 7 2 8 13 15 15 15 16 17 16 16 15 15 16 16 16 16 16 16 16 17 17 17 17 15 14 13 13 12 13
8 10 10 2 8 3 4 6 1 6 9 10 11 11 8 10 13 14 14 14 15 15 16 15 15 15 15 16 16 16 16 16 16 16 17 17 16 16 14 12 12 11 11 11
11 11 7 8 9 6 6 7 5 6 7 9 9 10 12 14 13 14 14 15 15 15 14 14 14 14 15 15 15 15 16 16 16 16 15 15 14 13 13 11 11 10 10 9
7 8 3 11 8 5 5 3 3 5 6 7 9 11 11 12 13 14 14 15 15 14 15 14 14 13 15 15 15 15 15 16 16 16 14 12 13 12 11 10 9 9 8 8
5 5 4 8 7 2 2 4 4 5 5 7 9 10 11 12 12 13 14 14 14 15 15 14 13 13 14 15 15 15 15 15 15 15 13 12 12 11 10 7 6 6 5 5
8 8 4 7 9 7 6 5 4 3 5 7 9 10 11 11 12 13 13 14 14 15 15 15 14 14 13 14 14 14 15 14 13 12 12 11 9 8 7 6 5 5 5 4
10 10 7 8 10 8 6 6 5 4 5 6 8 10 11 11 11 12 13 13 14 14 15 15 15 15 14 13 14 14 14 13 12 11 10 9 8 6 7 6 5 6 5 4
9 5 6 4 5 6 7 7 6 5 6 6 7 9 10 10 11 12 13 14 14 15 15 15 14 15 14 13 13 14 12 11 9 9 8 8 8 5 1 2 3 3 4 4
10 6 7 4 5 6 6 6 6 5 5 6 6 8 9 10 10 12 13 14 14 15 15 14 14 14 13 13 14 14 13 11 9 9 8 8 7 7 5 1 2 3 4 3
8 7 8 9 7 7 7 6 5 5 4 5 6 7 8 10 11 12 13 14 14 14 14 13 13 14 14 14 14 14 13 10 10 8 8 7 7 6 5 4 3 3 4 5
11 12 11 7 7 8 8 7 7 7 5 5 5 6 8 10 11 12 12 13 13 13 13 13 13 14 14 14 14 14 11 8 8 9 8 7 6 5 5 5 4 3 3 4
9 12 12 10 10 9 9 9 8 6 5 4 5 6 7 9 10 11 11 12 13 13 13 12 13 14 14 14 14 11 9 9 10 9 7 6 6 5 5 4 4 3 3 2
10 13 15 15 13 11 10 9 7 6 4 4 5 6 7 8 10 10 11 12 11 11 10 11 13 14 14 13 12 10 9 8 9 8 6 6 6 6 5 4 4 3 3 4
11 12 11 12 11 11 10 9 7 6 5 4 4 5 6 8 9 11 12 12 12 11 10 11 13 15 13 12 11 9 9 8 7 7 6 6 6 4 4 4 4 3 2 2
9 10 9 9 8 8 8 8 7 6 5 5 5 5 6 7 8 9 10 11 11 11 12 14 15 13 13 13 15 9 9 9 8 7 6 4 4 3 3 4 4 3 3 2
6 8 9 9 9 9 8 8 7 6 6 6 6 5 5 6 7 8 9 9 7 8 12 14 14 12 13 13 15 9 9 9 8 7 7 5 4 4 3 4 4 4 3 3
7 7 9 10 10 10 9 9 8 8 7 7 7 6 5 5 6 7 8 8 8 9 12 11 9 10 12 13 13 9 8 8 7 7 7 6 5 4 3 3 3 3 3 3
10 7 9 10 10 10 9 9 9 9 8 8 8 7 5 5 5 6 6 5 7 8 9 8 8 12 16 16 8 8 8 8 7 6 6 6 5 4 3 2 2 3 3 3
11 9 9 10 10 10 10 10 11 9 9 9 8 7 6 4 4 4 5 5 6 9 9 7 10 15 19 10 7 8 8 8 8 7 6 6 5 4 3 2 2 2 2 3
12 11 9 9 9 10 11 11 10 8 8 8 8 7 6 4 3 1 3 2 3 7 7 6 8 13 13 7 7 7 7 7 8 7 6 6 5 4 3 2 1 2 2 3
13 12 10 9 9 9 10 10 9 9 10 8 8 8 6 4 2 2 2 3 3 5 7 5 6 10 8 7 7 8 7 7 8 8 7 6 5 4 4 3 1 1 2 2
14 12 10 10 10 9 9 9 9 9 9 8 7 7 6 4 3 2 1 2 4 4 5 5 7 7 7 7 8 8 8 8 8 7 8 7 6 5 4 3 3 1 1 2
15 13 10 10 10 10 9 9 9 9 9 8 8 7 6 5 4 2 0 1 3 4 4 5 5 6 7 7 7 7 7 7 7 7 7 7 6 6 5 4 3 2 1 1
Wind_Direction
18 354 281 276 252 282 326 339 323 331 322 332 344 333 323 317 318 318 317 317 317 316 315 314 312 312 311 311 311 311 308 306 305 305 303 300 297 294 291 287 281 274 265 258
230 225 266 260 242 240 266 298 313 314 325 1 333 310 312 320 321 318 319 319 318 317 316 314 314 312 311 310 311 310 307 306 306 305 303 302 300 297 293 289 284 278 269 260
287 213 268 256 227 229 257 302 310 316 332 335 315 318 321 321 319 320 320 319 317 317 315 314 312 312 310 310 309 306 304 303 303 304 303 302 300 297 294 290 286 278 271 263
291 269 271 52 106 213 275 295 299 302 318 325 318 317 304 300 312 319 318 317 316 315 314 313 314 314 312 309 307 304 304 303 304 305 303 301 299 296 294 291 287 281 272 266
283 283 289 150 173 209 277 300 312 315 320 320 324 307 305 42 322 317 316 315 314 313 313 314 314 315 313 309 308 307 306 307 308 307 303 301 298 297 296 292 286 279 270 265
268 287 295 46 132 141 266 272 63 316 314 320 320 312 349 353 327 321 318 317 316 314 312 313 318 317 311 309 310 309 310 310 307 303 300 301 300 299 297 291 284 278 267 260
268 276 284 114 138 183 270 356 9 321 316 315 321 315 320 322 321 319 317 316 316 314 313 317 318 316 311 309 309 311 310 307 305 302 302 301 301 299 297 294 289 280 268 259
269 274 300 134 163 238 329 6 314 311 311 314 312 311 313 316 318 318 319 320 320 317 316 318 319 319 313 310 312 312 309 307 305 305 306 306 305 304 303 299 293 287 271 258
278 301 70 181 209 237 297 285 297 299 312 313 309 312 316 318 320 320 321 322 320 318 316 318 323 322 314 313 314 313 311 309 308 308 310 309 310 310 309 302 293 291 278 260
266 271 242 219 228 237 243 263 277 285 301 308 309 314 318 321 321 321 322 323 322 320 318 320 324 322 317 314 315 314 312 311 311 311 314 316 314 314 315 314 307 298 287 268
260 275 265 231 226 232 228 231 243 255 284 303 308 313 320 319 320 322 321 323 322 319 318 321 324 321 320 320 319 316 313 312 313 315 317 314 317 325 327 336 342 318 311 298
272 282 244 231 189 207 215 222 232 254 280 295 304 312 316 317 320 319 321 322 321 322 322 323 323 319 321 324 320 316 313 315 315 316 317 318 325 332 30 328 356 343 321 318
262 267 244 213 183 189 205 213 218 236 269 292 305 311 313 314 316 319 320 323 325 324 323 321 322 321 325 327 321 317 315 315 314 316 320 325 332 335 344 79 125 72 37 5
239 233 231 220 211 195 200 201 213 232 257 281 299 306 309 314 317 320 324 326 326 323 321 324 325 325 329 327 321 318 316 313 311 314 321 328 335 340 346 358 32 77 81 60
225 220 231 221 196 187 193 200 217 235 252 272 289 299 310 316 319 321 324 326 325 322 326 330 328 329 331 327 322 319 316 319 321 317 320 333 340 347 354 9 28 45 84 98
229 217 224 212 202 198 200 209 226 245 262 277 290 301 311 314 316 318 326 330 328 327 327 329 330 331 328 326 323 318 315 313 310 312 321 338 348 354 7 16 28 36 42 67
229 215 211 213 210 207 209 214 226 244 260 267 283 299 307 313 318 325 331 334 329 321 324 334 333 331 326 327 326 318 316 318 308 307 329 345 351 357 7 16 23 30 36 40
243 239 224 217 212 206 205 209 215 224 239 250 267 284 302 316 322 327 329 330 327 324 341 344 338 329 327 331 330 319 316 320 322 324 331 343 345 357 7 13 25 27 39 112
261 246 225 204 196 193 193 196 202 210 215 226 246 272 294 308 319 324 326 326 326 333 345 341 332 325 334 336 335 320 321 325 325 323 323 323 313 3 17 13 24 26 25 24
279 244 220 201 191 189 187 188 192 199 207 217 236 256 280 307 321 323 324 320 343 349 335 330 326 333 338 337 334 323 324 329 331 331 330 332 348 4 17 17 19 27 28 30
309 258 230 215 203 199 195 191 194 203 207 214 229 249 273 298 312 320 321 326 352 356 332 319 325 342 340 331 321 325 329 335 337 335 333 335 343 357 16 22 23 25 32 35
331 297 260 237 220 211 202 197 200 207 211 215 224 237 254 275 300 313 319 334 342 357 330 328 345 346 334 324 326 335 336 339 339 339 337 336 336 343 3 20 29 35 32 33
333 315 288 263 241 228 213 207 206 208 212 218 224 231 246 281 309 316 326 0 345 345 323 340 347 335 326 327 338 341 343 343 341 340 339 333 333 337 345 8 33 41 43 35
328 319 299 277 257 241 229 220 211 206 209 217 222 223 234 248 254 282 345 11 353 332 324 351 339 328 323 338 346 343 348 346 341 339 338 336 336 339 341 347 43 67 73 71
315 310 299 280 258 245 238 229 216 206 208 212 212 206 216 233 276 349 350 346 12 332 330 347 339 329 339 353 350 348 351 352 343 334 337 340 339 340 342 345 9 76 77 77
302 294 287 270 260 254 245 231 219 208 207 206 204 199 200 189 191 207 256 339 358 344 337 346 350 347 355 355 356 356 352 346 343 343 343 341 344 344 345 346 339 350 70 72
290 285 275 267 258 249 245 236 224 210 204 204 201 192 189 183 180 173 160 5 7 3 1 358 0 360 359 359 360 2 355 350 349 346 344 343 346 344 345 338 335 339 334 41